Location: Poughquag
(41.6090°N, 73.6820°W)
Time: 09:26:44
(UTC-04:00)

Tiros 1 despin weight - Visible Passes

Search period start: 14 October 2019 00:00
Search period end: 24 October 2019 00:00
Orbit: 594 x 643 km, 48.2° (Epoch: 14 October)

Date Brightness Start Highest point End Pass type
(mag) Time Alt. Az. Time Alt. Az. Time Alt. Az.
14 Oct ? 04:39:13 53° NE 04:39:13 53° NE 04:42:53 10° ENE visible
14 Oct ? 06:16:17 12° WNW 06:20:14 38° N 06:24:36 10° ENE visible
15 Oct ? 04:55:12 51° N 04:55:12 51° N 04:59:29 10° ENE visible
15 Oct ? 06:32:46 10° WNW 06:37:07 36° N 06:41:27 10° ENE visible
16 Oct ? 03:34:05 12° ENE 03:34:05 12° ENE 03:34:30 10° ENE visible
16 Oct ? 05:11:09 39° NNW 05:11:42 41° N 05:16:09 10° ENE visible
17 Oct ? 03:50:01 17° ENE 03:50:01 17° ENE 03:51:06 10° ENE visible
17 Oct ? 05:27:05 29° NW 05:28:35 36° N 05:32:56 10° ENE visible
18 Oct ? 04:05:57 22° NE 04:05:57 22° NE 04:07:43 10° ENE visible
18 Oct ? 05:43:00 22° NW 05:45:28 37° N 05:49:49 10° ENE visible
19 Oct ? 04:21:53 27° NE 04:21:53 27° NE 04:24:26 10° ENE visible
19 Oct ? 05:58:56 17° NW 06:02:19 43° NNE 06:06:47 10° E visible
20 Oct ? 04:37:50 33° NNE 04:37:50 33° NNE 04:41:16 10° ENE visible
20 Oct ? 06:14:54 12° WNW 06:19:06 57° NNE 06:23:42 10° E visible
21 Oct ? 04:53:49 39° N 04:53:49 39° N 04:58:11 10° ENE visible
21 Oct ? 06:31:03 10° WNW 06:35:47 86° NNE 06:40:26 10° ESE visible
22 Oct ? 05:09:50 43° NNW 05:10:37 48° NNE 05:15:09 10° E visible
23 Oct ? 03:48:51 14° ENE 03:48:51 14° ENE 03:49:36 10° ENE visible
23 Oct ? 05:25:55 43° NW 05:27:21 67° NNE 05:32:01 10° ESE visible
